N5DUP Weather Reports


Display with metric or nautical units.
time (UTC)temp
F
wind
direction
speed
MPH
gust
MPH
rain 1hr
in
rain 24hr
in
rain mn
in
humidity
%
barometer
mb
20210121060313 45 165 7.0 11.0 0.00 0.44 0.00 85 1018.3
20210121054815 45 167 5.0 12.0 0.00 0.44 0.44 86 1018.6
20210121053316 45 155 7.0 13.0 0.00 0.44 0.44 86 1018.7
20210121051819 45 142 7.0 11.0 0.00 0.44 0.44 86 1018.6
20210121050313 45 129 4.0 7.0 0.00 0.44 0.44 86 1018.8
20210121044813 45 142 4.0 11.0 0.00 0.44 0.44 86 1019.1
20210121043320 45 130 4.0 10.0 0.00 0.44 0.44 87 1019.0
20210121041819 44 123 4.0 9.0 0.00 0.44 0.44 87 1019.3
20210121040321 44 140 2.0 8.0 0.00 0.44 0.44 87 1019.4
20210121034825 44 134 4.0 12.0 0.00 0.44 0.44 87 1019.7
20210121033317 44 105 4.0 9.0 0.00 0.44 0.44 87 1019.7
20210121031814 44 155 2.0 7.0 0.00 0.44 0.44 88 1020.0
20210121030327 43 153 5.0 8.0 0.00 0.44 0.44 87 1019.8
20210121024819 43 147 4.0 9.0 0.00 0.44 0.44 88 1019.9
20210121023335 43 140 5.0 9.0 0.00 0.44 0.44 88 1020.5
20210121021826 43 130 4.0 8.0 0.00 0.44 0.44 88 1020.5
20210121020326 43 136 5.0 8.0 0.00 0.44 0.44 87 1020.6
20210121014826 44 130 3.0 7.0 0.00 0.44 0.44 87 1020.4
20210121013327 44 126 5.0 9.0 0.00 0.44 0.44 87 1020.7
20210121011823 44 181 3.0 5.0 0.00 0.44 0.44 87 1020.9
20210121010326 44 195 2.0 4.0 0.00 0.44 0.44 87 1020.9
20210121004823 44 195 2.0 3.0 0.00 0.44 0.44 86 1020.6
20210121003327 44 195 1.0 3.0 0.00 0.44 0.44 86 1020.4
20210121001831 45 195 1.0 2.0 0.00 0.44 0.44 86 1020.5
20210121000319 45 195 0.0 2.0 0.00 0.44 0.44 85 1020.7
20210120234824 46 195 0.0 1.0 0.00 0.44 0.44 86 1021.0
20210120233330 46 195 0.0 1.0 0.00 0.44 0.44 86 1021.2
20210120231835 46 195 0.0 4.0 0.00 0.44 0.44 86 1021.2
20210120230333 46 194 2.0 6.0 0.00 0.44 0.44 86 1021.2
20210120224815 46 188 2.0 5.0 0.00 0.44 0.44 86 1020.9
20210120223320 46 187 2.0 3.0 0.00 0.44 0.44 87 1021.0
20210120221820 45 188 2.0 5.0 0.00 0.44 0.44 87 1021.1
20210120220313 45 188 1.0 4.0 0.00 0.44 0.44 87 1021.3
20210120214818 45 189 2.0 5.0 0.00 0.44 0.44 87 1021.2
20210120213319 44 190 3.0 5.0 0.00 0.44 0.44 88 1021.2
20210120211818 44 190 1.0 3.0 0.00 0.44 0.44 88 1021.4
20210120210316 43 190 1.0 3.0 0.00 0.44 0.44 88 1021.4
20210120204833 43 190 2.0 6.0 0.00 0.44 0.44 88 1021.8
20210120203312 43 187 2.0 5.0 0.00 0.44 0.44 88 1021.9
20210120201814 42 190 1.0 3.0 0.00 0.44 0.44 88 1021.8
20210120200337 41 191 1.0 3.0 0.01 0.44 0.44 88 1022.2
20210120194826 41 191 1.0 3.0 0.02 0.44 0.44 87 1022.6
20210120193328 41 191 2.0 8.0 0.04 0.44 0.44 87 1023.1
20210120191828 41 160 2.0 6.0 0.08 0.44 0.44 87 1023.3
20210120190349 41 160 5.0 7.0 0.09 0.43 0.43 87 1023.7
20210120184829 41 166 2.0 5.0 0.10 0.42 0.42 88 1024.2
20210120183323 41 166 3.0 5.0 0.10 0.40 0.40 87 1024.9
20210120181823 41 164 2.0 5.0 0.06 0.36 0.36 87 1025.1
20210120180319 41 166 2.0 5.0 0.04 0.34 0.34 87 1025.6
20210120174819 40 163 1.0 5.0 0.02 0.32 0.32 87 1026.0
20210120173324 40 115 1.0 4.0 0.00 0.30 0.30 87 1026.2
20210120171816 40 90 2.0 4.0 0.00 0.30 0.30 87 1026.1
20210120170318 40 80 1.0 2.0 0.00 0.30 0.30 87 1026.6
20210120164818 40 79 1.0 2.0 0.00 0.30 0.30 87 1026.8
20210120163321 39 79 0.0 2.0 0.00 0.30 0.30 86 1026.6
20210120161818 39 327 2.0 3.0 0.00 0.30 0.30 86 1026.9
20210120160318 39 329 0.0 3.0 0.00 0.30 0.30 86 1026.9
20210120154819 38 329 0.0 2.0 0.00 0.30 0.30 86 1026.9
20210120153320 38 329 0.0 2.0 0.00 0.30 0.30 86 1026.8
20210120151822 38 329 0.0 2.0 0.00 0.30 0.30 86 1026.9
20210120150319 38 329 0.0 2.0 0.00 0.30 0.30 86 1026.8
20210120144820 37 329 0.0 2.0 0.01 0.30 0.30 86 1026.9
20210120143321 37 329 0.0 2.0 0.02 0.30 0.30 86 1027.0
20210120141821 37 329 0.0 3.0 0.03 0.30 0.30 86 1026.9
20210120140316 37 329 1.0 3.0 0.03 0.30 0.30 85 1027.0
20210120134831 37 329 2.0 2.0 0.03 0.29 0.29 85 1027.4
20210120133334 37 329 1.0 2.0 0.02 0.28 0.28 85 1027.6
20210120131834 37 329 1.0 3.0 0.01 0.27 0.27 85 1027.6
20210120130327 37 329 1.0 3.0 0.02 0.27 0.27 84 1027.8
20210120124831 37 329 1.0 3.0 0.01 0.26 0.26 84 1027.8
20210120123333 37 329 2.0 4.0 0.02 0.26 0.26 84 1027.8
20210120121835 37 331 0.0 2.0 0.03 0.26 0.26 84 1027.9
20210120120327 37 331 1.0 2.0 0.03 0.25 0.25 83 1028.0
20210120114825 38 331 0.0 1.0 0.04 0.25 0.25 83 1028.2
20210120113325 38 331 1.0 2.0 0.05 0.24 0.24 83 1028.3
20210120111826 38 331 0.0 1.0 0.06 0.23 0.23 83 1028.5
20210120110327 38 331 0.0 1.0 0.07 0.22 0.22 82 1028.5
20210120104828 38 331 0.0 1.0 0.09 0.21 0.21 81 1028.6
20210120103321 38 331 0.0 0.0 0.12 0.19 0.19 81 1028.6
20210120101822 39 331 0.0 0.0 0.12 0.17 0.17 80 1029.0
20210120100321 39 331 0.0 2.0 0.11 0.15 0.15 80 1029.1
20210120094819 40 331 0.0 0.0 0.09 0.12 0.12 80 1029.3
20210120093315 40 331 0.0 0.0 0.05 0.07 0.07 78 1029.8
20210120091820 40 331 0.0 0.0 0.04 0.05 0.05 77 1029.7
20210120090332 40 331 0.0 2.0 0.04 0.04 0.04 74 1029.8
20210120084830 40 331 0.0 2.0 0.03 0.03 0.03 72 1029.6
20210120083326 41 331 0.0 4.0 0.02 0.02 0.02 69 1029.5
20210120081823 42 340 3.0 5.0 0.01 0.01 0.01 64 1029.4
20210120080313 42 339 0.0 1.0 0.00 0.00 0.00 58 1030.2
20210120074820 42 339 0.0 0.0 0.00 0.00 0.00 56 1030.2
20210120073332 42 339 0.0 3.0 0.00 0.00 0.00 53 1029.9
20210120071831 42 339 1.0 4.0 0.00 0.00 0.00 53 1029.5
20210120070331 43 340 2.0 4.0 0.00 0.00 0.00 53 1029.7
20210120064830 43 336 2.0 4.0 0.00 0.00 0.00 52 1029.9
20210120063334 43 326 3.0 6.0 0.00 0.00 0.00 53 1029.8
20210120061832 43 343 4.0 8.0 0.00 0.00 0.00 53 1029.8